Year,Month,Day,Hour,Minute,Value (Times are PST for temperature in C)
2008,06,28,00,00,15.90
2008,06,28,00,01,15.90
2008,06,28,00,02,15.90
2008,06,28,00,03,15.90
2008,06,28,00,04,15.90
2008,06,28,00,05,15.90
2008,06,28,00,06,15.80
2008,06,28,00,07,15.80
2008,06,28,00,08,15.80
2008,06,28,00,09,15.80
2008,06,28,00,10,15.80
2008,06,28,00,11,15.80
2008,06,28,00,12,15.80
2008,06,28,00,13,15.80
2008,06,28,00,14,15.80
2008,06,28,00,15,15.80
2008,06,28,00,16,15.80
2008,06,28,00,17,15.80
2008,06,28,00,18,15.80
2008,06,28,00,19,15.80
2008,06,28,00,20,15.80
2008,06,28,00,21,15.80
2008,06,28,00,22,15.80
2008,06,28,00,23,15.80
2008,06,28,00,24,15.80
2008,06,28,00,25,15.80
2008,06,28,00,26,15.80
2008,06,28,00,27,15.80
2008,06,28,00,28,15.80
2008,06,28,00,29,15.80
2008,06,28,00,30,15.70
2008,06,28,00,31,15.70
2008,06,28,00,32,15.70
2008,06,28,00,33,15.70
2008,06,28,00,34,15.70
2008,06,28,00,35,15.70
2008,06,28,00,36,15.70
2008,06,28,00,37,15.70
2008,06,28,00,38,15.60
2008,06,28,00,39,15.60
2008,06,28,00,40,15.60
2008,06,28,00,41,15.60
2008,06,28,00,42,15.60
2008,06,28,00,43,15.60
2008,06,28,00,44,15.60
2008,06,28,00,45,15.60
2008,06,28,00,46,15.60
2008,06,28,00,47,15.60
2008,06,28,00,48,15.50
2008,06,28,00,49,15.50
2008,06,28,00,50,15.50
2008,06,28,00,51,15.50
2008,06,28,00,52,15.50
2008,06,28,00,53,15.50
2008,06,28,00,54,15.50
2008,06,28,00,55,15.50
2008,06,28,00,56,15.50
2008,06,28,00,57,15.50
2008,06,28,00,58,15.50
2008,06,28,00,59,15.40
2008,06,28,01,00,15.40
2008,06,28,01,01,15.40
2008,06,28,01,02,15.40
2008,06,28,01,03,15.40
2008,06,28,01,04,15.40
2008,06,28,01,05,15.40
2008,06,28,01,06,15.40
2008,06,28,01,07,15.50
2008,06,28,01,08,15.50
2008,06,28,01,09,15.50
2008,06,28,01,10,15.50
2008,06,28,01,11,15.50
2008,06,28,01,12,15.50
2008,06,28,01,13,15.50
2008,06,28,01,14,15.50
2008,06,28,01,15,15.50
2008,06,28,01,16,15.50
2008,06,28,01,17,15.50
2008,06,28,01,18,15.50
2008,06,28,01,19,15.40
2008,06,28,01,20,15.40
2008,06,28,01,21,15.40
2008,06,28,01,22,15.40
2008,06,28,01,23,15.40
2008,06,28,01,24,15.40
2008,06,28,01,25,15.40
2008,06,28,01,26,15.40
2008,06,28,01,27,15.40
2008,06,28,01,28,15.30
2008,06,28,01,29,15.30
2008,06,28,01,30,15.30
2008,06,28,01,31,15.30
2008,06,28,01,32,15.30
2008,06,28,01,33,15.30
2008,06,28,01,34,15.30
2008,06,28,01,35,15.30
2008,06,28,01,36,15.30
2008,06,28,01,37,15.30
2008,06,28,01,38,15.30
2008,06,28,01,39,15.30
2008,06,28,01,40,15.30
2008,06,28,01,41,15.30
2008,06,28,01,42,15.30
2008,06,28,01,43,15.20
2008,06,28,01,44,15.20
2008,06,28,01,45,15.20
2008,06,28,01,46,15.20
2008,06,28,01,47,15.20
2008,06,28,01,48,15.20
2008,06,28,01,49,15.20
2008,06,28,01,50,15.20
2008,06,28,01,51,15.20
2008,06,28,01,52,15.20
2008,06,28,01,53,15.20
2008,06,28,01,54,15.10
2008,06,28,01,55,15.10
2008,06,28,01,56,15.10
2008,06,28,01,57,15.10
2008,06,28,01,58,15.10
2008,06,28,01,59,15.10
2008,06,28,02,00,15.10
2008,06,28,02,01,15.10
2008,06,28,02,02,15.10
2008,06,28,02,03,15.10
2008,06,28,02,04,15.10
2008,06,28,02,05,15.00
2008,06,28,02,06,15.00
2008,06,28,02,07,15.00
2008,06,28,02,08,15.00
2008,06,28,02,09,15.00
2008,06,28,02,10,15.00
2008,06,28,02,11,15.00
2008,06,28,02,12,15.00
2008,06,28,02,13,15.00
2008,06,28,02,14,15.00
2008,06,28,02,15,15.00
2008,06,28,02,16,14.90
2008,06,28,02,17,14.90
2008,06,28,02,18,14.90
2008,06,28,02,19,14.90
2008,06,28,02,20,14.90
2008,06,28,02,21,14.90
2008,06,28,02,22,14.90
2008,06,28,02,23,14.90
2008,06,28,02,24,14.80
2008,06,28,02,25,14.80
2008,06,28,02,26,14.80
2008,06,28,02,27,14.80
2008,06,28,02,28,14.80
2008,06,28,02,29,14.80
2008,06,28,02,30,14.80
2008,06,28,02,31,14.80
2008,06,28,02,32,14.80
2008,06,28,02,33,14.80
2008,06,28,02,34,14.80
2008,06,28,02,35,14.80
2008,06,28,02,36,14.80
2008,06,28,02,37,14.80
2008,06,28,02,38,14.70
2008,06,28,02,39,14.70
2008,06,28,02,40,14.70
2008,06,28,02,41,14.70
2008,06,28,02,42,14.70
2008,06,28,02,43,14.70
2008,06,28,02,44,14.70
2008,06,28,02,45,14.70
2008,06,28,02,46,14.70
2008,06,28,02,47,14.70
2008,06,28,02,48,14.70
2008,06,28,02,49,14.70
2008,06,28,02,50,14.70
2008,06,28,02,51,14.70
2008,06,28,02,52,14.70
2008,06,28,02,53,14.80
2008,06,28,02,54,14.80
2008,06,28,02,55,14.80
2008,06,28,02,56,14.80
2008,06,28,02,57,14.80
2008,06,28,02,58,14.80
2008,06,28,02,59,14.80
2008,06,28,03,00,14.80
2008,06,28,03,01,14.80
2008,06,28,03,02,14.80
2008,06,28,03,03,14.80
2008,06,28,03,04,14.80
2008,06,28,03,05,14.80
2008,06,28,03,06,14.70
2008,06,28,03,07,14.70
2008,06,28,03,08,14.70
2008,06,28,03,09,14.70
2008,06,28,03,10,14.70
2008,06,28,03,11,14.70
2008,06,28,03,12,14.70
2008,06,28,03,13,14.70
2008,06,28,03,14,14.70
2008,06,28,03,15,14.70
2008,06,28,03,16,14.70
2008,06,28,03,17,14.70
2008,06,28,03,18,14.70
2008,06,28,03,19,14.70
2008,06,28,03,20,14.70
2008,06,28,03,21,14.70
2008,06,28,03,22,14.70
2008,06,28,03,23,14.70
2008,06,28,03,24,14.70
2008,06,28,03,25,14.70
2008,06,28,03,26,14.70
2008,06,28,03,27,14.70
2008,06,28,03,28,14.60
2008,06,28,03,29,14.60
2008,06,28,03,30,14.60
2008,06,28,03,31,14.60
2008,06,28,03,32,14.60
2008,06,28,03,33,14.60
2008,06,28,03,34,14.60
2008,06,28,03,35,14.60
2008,06,28,03,36,14.60
2008,06,28,03,37,14.60
2008,06,28,03,38,14.60
2008,06,28,03,39,14.60
2008,06,28,03,40,14.60
2008,06,28,03,41,14.60
2008,06,28,03,42,14.60
2008,06,28,03,43,14.60
2008,06,28,03,44,14.60
2008,06,28,03,45,14.60
2008,06,28,03,46,14.50
2008,06,28,03,47,14.50
2008,06,28,03,48,14.50
2008,06,28,03,49,14.50
2008,06,28,03,50,14.50
2008,06,28,03,51,14.50
2008,06,28,03,52,14.50
2008,06,28,03,53,14.50
2008,06,28,03,54,14.50
2008,06,28,03,55,14.40
2008,06,28,03,56,14.40
2008,06,28,03,57,14.40
2008,06,28,03,58,14.40
2008,06,28,03,59,14.40
2008,06,28,04,00,14.30
2008,06,28,04,01,14.30
2008,06,28,04,02,14.30
2008,06,28,04,03,14.30
2008,06,28,04,04,14.30
2008,06,28,04,05,14.30
2008,06,28,04,06,14.20
2008,06,28,04,07,14.20
2008,06,28,04,08,14.20
2008,06,28,04,09,14.20
2008,06,28,04,10,14.20
2008,06,28,04,11,14.20
2008,06,28,04,12,14.20
2008,06,28,04,13,14.20
2008,06,28,04,14,14.20
2008,06,28,04,15,14.20
2008,06,28,04,16,14.20
2008,06,28,04,17,14.20
2008,06,28,04,18,14.20
2008,06,28,04,19,14.20
2008,06,28,04,20,14.20
2008,06,28,04,21,14.20
2008,06,28,04,22,14.20
2008,06,28,04,23,14.20
2008,06,28,04,24,14.20
2008,06,28,04,25,14.20
2008,06,28,04,26,14.10
2008,06,28,04,27,14.10
2008,06,28,04,28,14.10
2008,06,28,04,29,14.10
2008,06,28,04,30,14.10
2008,06,28,04,31,14.10
2008,06,28,04,32,14.10
2008,06,28,04,33,14.00
2008,06,28,04,34,14.00
2008,06,28,04,35,14.00
2008,06,28,04,36,14.00
2008,06,28,04,37,14.00
2008,06,28,04,38,14.00
2008,06,28,04,39,14.00
2008,06,28,04,40,14.00
2008,06,28,04,41,14.00
2008,06,28,04,42,14.00
2008,06,28,04,43,14.00
2008,06,28,04,44,14.00
2008,06,28,04,45,14.00
2008,06,28,04,46,14.00
2008,06,28,04,47,14.00
2008,06,28,04,48,14.00
2008,06,28,04,49,14.00
2008,06,28,04,50,14.00
2008,06,28,04,51,14.00
2008,06,28,04,52,14.00
2008,06,28,04,53,13.90
2008,06,28,04,54,13.90
2008,06,28,04,55,13.90
2008,06,28,04,56,13.90
2008,06,28,04,57,13.90
2008,06,28,04,58,13.90
2008,06,28,04,59,13.90
2008,06,28,05,00,13.90
2008,06,28,05,01,13.90
2008,06,28,05,02,13.90
2008,06,28,05,03,13.90
2008,06,28,05,04,13.90
2008,06,28,05,05,13.90
2008,06,28,05,06,13.90
2008,06,28,05,07,13.90
2008,06,28,05,08,13.90
2008,06,28,05,09,13.90
2008,06,28,05,10,13.90
2008,06,28,05,11,13.90
2008,06,28,05,12,13.80
2008,06,28,05,13,13.80
2008,06,28,05,14,13.80
2008,06,28,05,15,13.80
2008,06,28,05,16,13.80
2008,06,28,05,17,13.80
2008,06,28,05,18,13.80
2008,06,28,05,19,13.70
2008,06,28,05,20,13.70
2008,06,28,05,21,13.70
2008,06,28,05,22,13.70
2008,06,28,05,23,13.70
2008,06,28,05,24,13.70
2008,06,28,05,25,13.70
2008,06,28,05,26,13.70
2008,06,28,05,27,13.70
2008,06,28,05,28,13.70
2008,06,28,05,29,13.70
2008,06,28,05,30,13.70
2008,06,28,05,31,13.70
2008,06,28,05,32,13.70
2008,06,28,05,33,13.70
2008,06,28,05,34,13.70
2008,06,28,05,35,13.60
2008,06,28,05,36,13.60
2008,06,28,05,37,13.60
2008,06,28,05,38,13.60
2008,06,28,05,39,13.60
2008,06,28,05,40,13.60
2008,06,28,05,41,13.50
2008,06,28,05,42,13.50
2008,06,28,05,43,13.50
2008,06,28,05,44,13.50
2008,06,28,05,45,13.50
2008,06,28,05,46,13.60
2008,06,28,05,47,13.60
2008,06,28,05,48,13.60
2008,06,28,05,49,13.60
2008,06,28,05,50,13.60
2008,06,28,05,51,13.60
2008,06,28,05,52,13.60
2008,06,28,05,53,13.60
2008,06,28,05,54,13.60
2008,06,28,05,55,13.60
2008,06,28,05,56,13.60
2008,06,28,05,57,13.60
2008,06,28,05,58,13.60
2008,06,28,05,59,13.60
2008,06,28,06,00,13.60
2008,06,28,06,01,13.70
2008,06,28,06,02,13.70
2008,06,28,06,03,13.70
2008,06,28,06,04,13.70
2008,06,28,06,05,13.70
2008,06,28,06,06,13.70
2008,06,28,06,07,13.70
2008,06,28,06,08,13.70
2008,06,28,06,09,13.70
2008,06,28,06,10,13.70
2008,06,28,06,11,13.70
2008,06,28,06,12,13.70
2008,06,28,06,13,13.80
2008,06,28,06,14,13.80
2008,06,28,06,15,13.80
2008,06,28,06,16,13.90
2008,06,28,06,17,13.90
2008,06,28,06,18,13.90
2008,06,28,06,19,13.90
2008,06,28,06,20,14.00
2008,06,28,06,21,14.00
2008,06,28,06,22,14.00
2008,06,28,06,23,14.00
2008,06,28,06,24,14.10
2008,06,28,06,25,14.10
2008,06,28,06,26,14.10
2008,06,28,06,27,14.20
2008,06,28,06,28,14.20
2008,06,28,06,29,14.20
2008,06,28,06,30,14.20
2008,06,28,06,31,14.20
2008,06,28,06,32,14.30
2008,06,28,06,33,14.40
2008,06,28,06,34,14.40
2008,06,28,06,35,14.50
2008,06,28,06,36,14.50
2008,06,28,06,37,14.60
2008,06,28,06,38,14.60
2008,06,28,06,39,14.70
2008,06,28,06,40,14.80
2008,06,28,06,41,14.80
2008,06,28,06,42,14.90
2008,06,28,06,43,15.00
2008,06,28,06,44,15.10
2008,06,28,06,45,15.20
2008,06,28,06,46,15.30
2008,06,28,06,47,15.30
2008,06,28,06,48,15.40
2008,06,28,06,49,15.50
2008,06,28,06,50,15.50
2008,06,28,06,51,15.60
2008,06,28,06,52,15.70
2008,06,28,06,53,15.80
2008,06,28,06,54,15.80
2008,06,28,06,55,15.80
2008,06,28,06,56,15.90
2008,06,28,06,57,16.00
2008,06,28,06,58,16.10
2008,06,28,06,59,16.10
2008,06,28,07,00,16.10
2008,06,28,07,01,16.10
2008,06,28,07,02,16.20
2008,06,28,07,03,16.30
2008,06,28,07,04,16.40
2008,06,28,07,05,16.40
2008,06,28,07,06,16.50
2008,06,28,07,07,16.60
2008,06,28,07,08,16.70
2008,06,28,07,09,16.80
2008,06,28,07,10,16.90
2008,06,28,07,11,16.90
2008,06,28,07,12,17.00
2008,06,28,07,13,17.10
2008,06,28,07,14,17.20
2008,06,28,07,15,17.30
2008,06,28,07,16,17.30
2008,06,28,07,17,17.50
2008,06,28,07,18,17.50
2008,06,28,07,19,17.70
2008,06,28,07,20,17.70
2008,06,28,07,21,17.80
2008,06,28,07,22,17.90
2008,06,28,07,23,17.90
2008,06,28,07,24,18.00
2008,06,28,07,25,18.10
2008,06,28,07,26,18.20
2008,06,28,07,27,18.20
2008,06,28,07,28,18.30
2008,06,28,07,29,18.30
2008,06,28,07,30,18.50
2008,06,28,07,31,18.60
2008,06,28,07,32,18.60
2008,06,28,07,33,18.70
2008,06,28,07,34,18.70
2008,06,28,07,35,18.80
2008,06,28,07,36,18.80
2008,06,28,07,37,18.90
2008,06,28,07,38,18.90
2008,06,28,07,39,19.00
2008,06,28,07,40,19.10
2008,06,28,07,41,19.10
2008,06,28,07,42,19.20
2008,06,28,07,43,19.30
2008,06,28,07,44,19.30
2008,06,28,07,45,19.30
2008,06,28,07,46,19.40
2008,06,28,07,47,19.40
2008,06,28,07,48,19.40
2008,06,28,07,49,19.40
2008,06,28,07,50,19.40
2008,06,28,07,51,19.50
2008,06,28,07,52,19.50
2008,06,28,07,53,19.60
2008,06,28,07,54,19.60
2008,06,28,07,55,19.60
2008,06,28,07,56,19.60
2008,06,28,07,57,19.60
2008,06,28,07,58,19.70
2008,06,28,07,59,19.80
2008,06,28,08,00,19.80
2008,06,28,08,01,19.90
2008,06,28,08,02,19.90
2008,06,28,08,03,20.10
2008,06,28,08,04,20.10
2008,06,28,08,05,20.10
2008,06,28,08,06,20.20
2008,06,28,08,07,20.20
2008,06,28,08,08,20.20
2008,06,28,08,09,20.30
2008,06,28,08,10,20.30
2008,06,28,08,11,20.30
2008,06,28,08,12,20.30
2008,06,28,08,13,20.40
2008,06,28,08,14,20.50
2008,06,28,08,15,20.50
2008,06,28,08,16,20.60
2008,06,28,08,17,20.70
2008,06,28,08,18,20.70
2008,06,28,08,19,20.80
2008,06,28,08,20,20.80
2008,06,28,08,21,20.90
2008,06,28,08,22,21.00
2008,06,28,08,23,21.00
2008,06,28,08,24,21.00
2008,06,28,08,25,21.10
2008,06,28,08,26,21.10
2008,06,28,08,27,21.10
2008,06,28,08,28,21.00
2008,06,28,08,29,21.00
2008,06,28,08,30,20.90
2008,06,28,08,31,20.90
2008,06,28,08,32,20.80
2008,06,28,08,33,20.80
2008,06,28,08,34,20.70
2008,06,28,08,35,20.70
2008,06,28,08,36,20.70
2008,06,28,08,37,20.70
2008,06,28,08,38,20.70
2008,06,28,08,39,20.70
2008,06,28,08,40,20.70
2008,06,28,08,41,20.80
2008,06,28,08,42,20.80
2008,06,28,08,43,20.80
2008,06,28,08,44,20.80
2008,06,28,08,45,20.80
2008,06,28,08,46,20.80
2008,06,28,08,47,20.80
2008,06,28,08,48,20.80
2008,06,28,08,49,20.70
2008,06,28,08,50,20.60
2008,06,28,08,51,20.50
2008,06,28,08,52,20.50
2008,06,28,08,53,20.50
2008,06,28,08,54,20.50
2008,06,28,08,55,20.60
2008,06,28,08,56,20.60
2008,06,28,08,57,20.70
2008,06,28,08,58,20.80
2008,06,28,08,59,21.00
2008,06,28,09,00,21.00
2008,06,28,09,01,21.00
2008,06,28,09,02,21.10
2008,06,28,09,03,21.00
2008,06,28,09,04,20.90
2008,06,28,09,05,20.90
2008,06,28,09,06,20.90
2008,06,28,09,07,20.90
2008,06,28,09,08,20.90
2008,06,28,09,09,20.90
2008,06,28,09,10,20.90
2008,06,28,09,11,21.00
2008,06,28,09,12,21.00
2008,06,28,09,13,21.10
2008,06,28,09,14,21.10
2008,06,28,09,15,21.10
2008,06,28,09,16,21.10
2008,06,28,09,17,21.20
2008,06,28,09,18,21.20
2008,06,28,09,19,21.30
2008,06,28,09,20,21.30
2008,06,28,09,21,21.30
2008,06,28,09,22,21.30
2008,06,28,09,23,21.20
2008,06,28,09,24,21.20
2008,06,28,09,25,21.30
2008,06,28,09,26,21.30
2008,06,28,09,27,21.30
2008,06,28,09,28,21.20
2008,06,28,09,29,21.20
2008,06,28,09,30,21.20
2008,06,28,09,31,21.20
2008,06,28,09,32,21.20
2008,06,28,09,33,21.20
2008,06,28,09,34,21.30
2008,06,28,09,35,21.30
2008,06,28,09,36,21.30
2008,06,28,09,37,21.30
2008,06,28,09,38,21.30
2008,06,28,09,39,21.30
2008,06,28,09,40,21.30
2008,06,28,09,41,21.30
2008,06,28,09,42,21.30
2008,06,28,09,43,21.30
2008,06,28,09,44,21.30
2008,06,28,09,45,21.30
2008,06,28,09,46,21.30
2008,06,28,09,47,21.30
2008,06,28,09,48,21.30
2008,06,28,09,49,21.30
2008,06,28,09,50,21.30
2008,06,28,09,51,21.30
2008,06,28,09,52,21.30
2008,06,28,09,53,21.30
2008,06,28,09,54,21.40
2008,06,28,09,55,21.40
2008,06,28,09,56,21.60
2008,06,28,09,57,21.60
2008,06,28,09,58,21.60
2008,06,28,09,59,21.60
2008,06,28,10,00,21.60
2008,06,28,10,01,21.60
2008,06,28,10,02,21.60
2008,06,28,10,03,21.60
2008,06,28,10,04,21.70
2008,06,28,10,05,21.80
2008,06,28,10,06,21.80
2008,06,28,10,07,21.90
2008,06,28,10,08,22.00
2008,06,28,10,09,22.00
2008,06,28,10,10,22.10
2008,06,28,10,11,22.10
2008,06,28,10,12,22.20
2008,06,28,10,13,22.20
2008,06,28,10,14,22.20
2008,06,28,10,15,22.30
2008,06,28,10,16,22.30
2008,06,28,10,17,22.40
2008,06,28,10,18,22.40
2008,06,28,10,19,22.40
2008,06,28,10,20,22.40
2008,06,28,10,21,22.40
2008,06,28,10,22,22.40
2008,06,28,10,23,22.40
2008,06,28,10,24,22.40
2008,06,28,10,25,22.40
2008,06,28,10,26,22.40
2008,06,28,10,27,22.30
2008,06,28,10,28,22.20
2008,06,28,10,29,22.20
2008,06,28,10,30,22.20
2008,06,28,10,31,22.30
2008,06,28,10,32,22.30
2008,06,28,10,33,22.40
2008,06,28,10,34,22.60
2008,06,28,10,35,22.70
2008,06,28,10,36,22.70
2008,06,28,10,37,22.80
2008,06,28,10,38,22.90
2008,06,28,10,39,22.90
2008,06,28,10,40,22.90
2008,06,28,10,41,22.90
2008,06,28,10,42,23.00
2008,06,28,10,43,23.10
2008,06,28,10,44,23.20
2008,06,28,10,45,23.30
2008,06,28,10,46,23.30
2008,06,28,10,47,23.30
2008,06,28,10,48,23.30
2008,06,28,10,49,23.30
2008,06,28,10,50,23.30
2008,06,28,10,51,23.40
2008,06,28,10,52,23.60
2008,06,28,10,53,23.70
2008,06,28,10,54,23.70
2008,06,28,10,55,23.60
2008,06,28,10,56,23.60
2008,06,28,10,57,23.70
2008,06,28,10,58,23.60
2008,06,28,10,59,23.60
2008,06,28,11,00,23.60
2008,06,28,11,01,23.60
2008,06,28,11,02,23.60
2008,06,28,11,03,23.70
2008,06,28,11,04,23.70
2008,06,28,11,05,23.70
2008,06,28,11,06,23.70
2008,06,28,11,07,23.70
2008,06,28,11,08,23.70
2008,06,28,11,09,23.70
2008,06,28,11,10,23.70
2008,06,28,11,11,23.60
2008,06,28,11,12,23.50
2008,06,28,11,13,23.50
2008,06,28,11,14,23.60
2008,06,28,11,15,23.60
2008,06,28,11,16,23.60
2008,06,28,11,17,23.60
2008,06,28,11,18,23.70
2008,06,28,11,19,23.60
2008,06,28,11,20,23.60
2008,06,28,11,21,23.60
2008,06,28,11,22,23.40
2008,06,28,11,23,23.10
2008,06,28,11,24,22.80
2008,06,28,11,25,22.40
2008,06,28,11,26,22.10
2008,06,28,11,27,22.00
2008,06,28,11,28,21.90
2008,06,28,11,29,21.90
2008,06,28,11,30,21.80
2008,06,28,11,31,21.80
2008,06,28,11,32,21.80
2008,06,28,11,33,21.90
2008,06,28,11,34,21.90
2008,06,28,11,35,21.90
2008,06,28,11,36,21.90
2008,06,28,11,37,22.00
2008,06,28,11,38,22.10
2008,06,28,11,39,22.20
2008,06,28,11,40,22.20
2008,06,28,11,41,22.30
2008,06,28,11,42,22.30
2008,06,28,11,43,22.30
2008,06,28,11,44,22.30
2008,06,28,11,45,22.30
2008,06,28,11,46,22.30
2008,06,28,11,47,22.20
2008,06,28,11,48,22.20
2008,06,28,11,49,22.30
2008,06,28,11,50,22.30
2008,06,28,11,51,22.30
2008,06,28,11,52,22.30
2008,06,28,11,53,22.30
2008,06,28,11,54,22.30
2008,06,28,11,55,22.30
2008,06,28,11,56,22.30
2008,06,28,11,57,22.30
2008,06,28,11,58,22.20
2008,06,28,11,59,22.20
2008,06,28,12,00,22.20
2008,06,28,12,01,22.30
2008,06,28,12,02,22.40
2008,06,28,12,03,22.40
2008,06,28,12,04,22.40
2008,06,28,12,05,22.40
2008,06,28,12,06,22.50
2008,06,28,12,07,22.60
2008,06,28,12,08,22.70
2008,06,28,12,09,22.90
2008,06,28,12,10,22.90
2008,06,28,12,11,23.10
2008,06,28,12,12,23.10
2008,06,28,12,13,23.20
2008,06,28,12,14,23.30
2008,06,28,12,15,23.30
2008,06,28,12,16,23.30
2008,06,28,12,17,23.30
2008,06,28,12,18,23.30
2008,06,28,12,19,23.30
2008,06,28,12,20,23.30
2008,06,28,12,21,23.40
2008,06,28,12,22,23.60
2008,06,28,12,23,23.60
2008,06,28,12,24,23.60
2008,06,28,12,25,23.60
2008,06,28,12,26,23.50
2008,06,28,12,27,23.40
2008,06,28,12,28,23.60
2008,06,28,12,29,23.50
2008,06,28,12,30,23.50
2008,06,28,12,31,23.60
2008,06,28,12,32,23.50
2008,06,28,12,33,23.40
2008,06,28,12,34,23.50
2008,06,28,12,35,23.50
2008,06,28,12,36,23.40
2008,06,28,12,37,23.40
2008,06,28,12,38,23.30
2008,06,28,12,39,23.30
2008,06,28,12,40,23.30
2008,06,28,12,41,23.30
2008,06,28,12,42,23.30
2008,06,28,12,43,23.30
2008,06,28,12,44,23.30
2008,06,28,12,45,23.30
2008,06,28,12,46,23.30
2008,06,28,12,47,23.30
2008,06,28,12,48,23.30
2008,06,28,12,49,23.30
2008,06,28,12,50,23.30
2008,06,28,12,51,23.30
2008,06,28,12,52,23.30
2008,06,28,12,53,23.20
2008,06,28,12,54,23.20
2008,06,28,12,55,23.20
2008,06,28,12,56,23.10
2008,06,28,12,57,23.10
2008,06,28,12,58,23.20
2008,06,28,12,59,23.30
2008,06,28,13,00,23.30
2008,06,28,13,01,23.30
2008,06,28,13,02,23.30
2008,06,28,13,03,23.30
2008,06,28,13,04,23.30
2008,06,28,13,05,23.30
2008,06,28,13,06,23.30
2008,06,28,13,07,23.40
2008,06,28,13,08,23.40
2008,06,28,13,09,23.40
2008,06,28,13,10,23.40
2008,06,28,13,11,23.40
2008,06,28,13,12,23.40
2008,06,28,13,13,23.50
2008,06,28,13,14,23.50
2008,06,28,13,15,23.40
2008,06,28,13,16,23.60
2008,06,28,13,17,23.70
2008,06,28,13,18,23.80
2008,06,28,13,19,23.80
2008,06,28,13,20,23.70
2008,06,28,13,21,23.70
2008,06,28,13,22,23.70
2008,06,28,13,23,23.70
2008,06,28,13,24,23.80
2008,06,28,13,25,23.80
2008,06,28,13,26,23.80
2008,06,28,13,27,23.80
2008,06,28,13,28,23.80
2008,06,28,13,29,23.90
2008,06,28,13,30,23.90
2008,06,28,13,31,23.90
2008,06,28,13,32,24.00
2008,06,28,13,33,24.00
2008,06,28,13,34,23.90
2008,06,28,13,35,23.80
2008,06,28,13,36,23.70
2008,06,28,13,37,23.60
2008,06,28,13,38,23.40
2008,06,28,13,39,23.40
2008,06,28,13,40,23.30
2008,06,28,13,41,23.30
2008,06,28,13,42,23.40
2008,06,28,13,43,23.50
2008,06,28,13,44,23.70
2008,06,28,13,45,23.70
2008,06,28,13,46,23.70
2008,06,28,13,47,23.60
2008,06,28,13,48,23.50
2008,06,28,13,49,23.40
2008,06,28,13,50,23.30
2008,06,28,13,51,23.30
2008,06,28,13,52,23.30
2008,06,28,13,53,23.40
2008,06,28,13,54,23.50
2008,06,28,13,55,23.60
2008,06,28,13,56,23.70
2008,06,28,13,57,23.70
2008,06,28,13,58,23.80
2008,06,28,13,59,23.90
2008,06,28,14,00,24.00
2008,06,28,14,01,23.90
2008,06,28,14,02,23.90
2008,06,28,14,03,24.00
2008,06,28,14,04,24.10
2008,06,28,14,05,24.10
2008,06,28,14,06,24.00
2008,06,28,14,07,24.00
2008,06,28,14,08,23.90
2008,06,28,14,09,24.00
2008,06,28,14,10,24.10
2008,06,28,14,11,24.20
2008,06,28,14,12,24.30
2008,06,28,14,13,24.40
2008,06,28,14,14,24.50
2008,06,28,14,15,24.60
2008,06,28,14,16,24.80
2008,06,28,14,17,24.90
2008,06,28,14,18,24.90
2008,06,28,14,19,25.00
2008,06,28,14,20,25.10
2008,06,28,14,21,25.10
2008,06,28,14,22,25.20
2008,06,28,14,23,25.20
2008,06,28,14,24,25.20
2008,06,28,14,25,25.20
2008,06,28,14,26,25.30
2008,06,28,14,27,25.40
2008,06,28,14,28,25.40
2008,06,28,14,29,25.40
2008,06,28,14,30,25.40
2008,06,28,14,31,25.20
2008,06,28,14,32,25.20
2008,06,28,14,33,25.30
2008,06,28,14,34,25.30
2008,06,28,14,35,25.30
2008,06,28,14,36,25.40
2008,06,28,14,37,25.40
2008,06,28,14,38,25.40
2008,06,28,14,39,25.40
2008,06,28,14,40,25.50
2008,06,28,14,41,25.50
2008,06,28,14,42,25.50
2008,06,28,14,43,25.50
2008,06,28,14,44,25.40
2008,06,28,14,45,25.30
2008,06,28,14,46,25.20
2008,06,28,14,47,25.20
2008,06,28,14,48,25.20
2008,06,28,14,49,25.20
2008,06,28,14,50,25.30
2008,06,28,14,51,25.40
2008,06,28,14,52,25.50
2008,06,28,14,53,25.40
2008,06,28,14,54,25.40
2008,06,28,14,55,25.30
2008,06,28,14,56,25.20
2008,06,28,14,57,25.30
2008,06,28,14,58,25.30
2008,06,28,14,59,25.40
2008,06,28,15,00,25.40
2008,06,28,15,01,25.30
2008,06,28,15,02,25.30
2008,06,28,15,03,25.20
2008,06,28,15,04,25.20
2008,06,28,15,05,25.10
2008,06,28,15,06,24.90
2008,06,28,15,07,24.60
2008,06,28,15,08,24.30
2008,06,28,15,09,23.90
2008,06,28,15,10,23.60
2008,06,28,15,11,23.40
2008,06,28,15,12,23.30
2008,06,28,15,13,23.30
2008,06,28,15,14,23.30
2008,06,28,15,15,23.30
2008,06,28,15,16,23.30
2008,06,28,15,17,23.30
2008,06,28,15,18,23.30
2008,06,28,15,19,23.40
2008,06,28,15,20,23.50
2008,06,28,15,21,23.70
2008,06,28,15,22,23.70
2008,06,28,15,23,23.80
2008,06,28,15,24,23.90
2008,06,28,15,25,24.00
2008,06,28,15,26,24.10
2008,06,28,15,27,24.20
2008,06,28,15,28,24.10
2008,06,28,15,29,24.10
2008,06,28,15,30,24.00
2008,06,28,15,31,23.70
2008,06,28,15,32,23.70
2008,06,28,15,33,23.60
2008,06,28,15,34,23.50
2008,06,28,15,35,23.40
2008,06,28,15,36,23.30
2008,06,28,15,37,23.30
2008,06,28,15,38,23.30
2008,06,28,15,39,23.30
2008,06,28,15,40,23.30
2008,06,28,15,41,23.40
2008,06,28,15,42,23.50
2008,06,28,15,43,23.70
2008,06,28,15,44,23.80
2008,06,28,15,45,23.90
2008,06,28,15,46,24.00
2008,06,28,15,47,24.00
2008,06,28,15,48,23.90
2008,06,28,15,49,23.90
2008,06,28,15,50,24.10
2008,06,28,15,51,24.10
2008,06,28,15,52,24.20
2008,06,28,15,53,24.20
2008,06,28,15,54,24.20
2008,06,28,15,55,24.10
2008,06,28,15,56,24.10
2008,06,28,15,57,24.10
2008,06,28,15,58,24.10
2008,06,28,15,59,24.10
2008,06,28,16,00,24.10
2008,06,28,16,01,24.10
2008,06,28,16,02,24.20
2008,06,28,16,03,24.10
2008,06,28,16,04,24.00
2008,06,28,16,05,23.90
2008,06,28,16,06,23.90
2008,06,28,16,07,23.90
2008,06,28,16,08,23.80
2008,06,28,16,09,23.70
2008,06,28,16,10,23.70
2008,06,28,16,11,23.70
2008,06,28,16,12,23.60
2008,06,28,16,13,23.50
2008,06,28,16,14,23.40
2008,06,28,16,15,23.30
2008,06,28,16,16,23.50
2008,06,28,16,17,23.60
2008,06,28,16,18,23.60
2008,06,28,16,19,23.70
2008,06,28,16,20,23.60
2008,06,28,16,21,23.70
2008,06,28,16,22,23.70
2008,06,28,16,23,23.70
2008,06,28,16,24,23.70
2008,06,28,16,25,23.80
2008,06,28,16,26,23.90
2008,06,28,16,27,24.10
2008,06,28,16,28,24.20
2008,06,28,16,29,24.20
2008,06,28,16,30,24.30
2008,06,28,16,31,24.30
2008,06,28,16,32,24.40
2008,06,28,16,33,24.30
2008,06,28,16,34,24.30
2008,06,28,16,35,24.20
2008,06,28,16,36,24.20
2008,06,28,16,37,24.20
2008,06,28,16,38,24.20
2008,06,28,16,39,24.20
2008,06,28,16,40,24.30
2008,06,28,16,41,24.40
2008,06,28,16,42,24.50
2008,06,28,16,43,24.50
2008,06,28,16,44,24.50
2008,06,28,16,45,24.50
2008,06,28,16,46,24.50
2008,06,28,16,47,24.60
2008,06,28,16,48,24.60
2008,06,28,16,49,24.70
2008,06,28,16,50,24.80
2008,06,28,16,51,24.90
2008,06,28,16,52,24.80
2008,06,28,16,53,24.80
2008,06,28,16,54,24.80
2008,06,28,16,55,24.80
2008,06,28,16,56,24.90
2008,06,28,16,57,24.90
2008,06,28,16,58,25.00
2008,06,28,16,59,25.00
2008,06,28,17,00,25.10
2008,06,28,17,01,25.20
2008,06,28,17,02,25.30
2008,06,28,17,03,25.20
2008,06,28,17,04,25.30
2008,06,28,17,05,25.20
2008,06,28,17,06,25.20
2008,06,28,17,07,25.30
2008,06,28,17,08,25.40
2008,06,28,17,09,25.50
2008,06,28,17,10,25.60
2008,06,28,17,11,25.70
2008,06,28,17,12,25.70
2008,06,28,17,13,25.80
2008,06,28,17,14,25.80
2008,06,28,17,15,25.90
2008,06,28,17,16,25.90
2008,06,28,17,17,25.90
2008,06,28,17,18,25.90
2008,06,28,17,19,25.90